Regional Weather Roundup
Issued by NWS Kansas City/Pleasant Hill, MO

Home | Current Version | Previous Version | Graphics & Text | Print | Product List | Glossary Off
Versions: 1 2 3 4 5 6 7 8 9 10 11 12 13 14 15 16 17 18 19 20 21 22 23 24 25 26 27 28

000
ASUS43 KEAX 192010
RWREAX

WEATHER ROUNDUP FOR EASTERN KANSAS AND NORTHWEST MISSOURI
NATIONAL WEATHER SERVICE KANSAS CITY/PLEASANT HILL MO
200 PM CST SUN NOV 19 2017

KSZ040-057-103>105-MOZ028-029-037-043-192100-
...KANSAS CITY METROPOLITAN AREA...

CITY           SKY/WX    TMP DP  RH WIND       PRES   REMARKS
K.C. INTL      SUNNY     50  27  40 SW12      30.16F
K.C. DOWNTOWN  SUNNY     52  26  36 S10       30.17F
LEES SUMMIT    SUNNY     50  26  39 S13       30.18F
OLATHE - IXD   SUNNY     52  29  41 S14       30.18F
OLATHE - OJC   SUNNY     49  28  44 SW9       30.17F
LAWRENCE       SUNNY     54  28  36 SW9       30.17F

$$

MOZ001>008-011>017-020>025-030>033-038>040-044>046-053-054-192100-
...NORTHERN AND CENTRAL MISSOURI...

CITY           SKY/WX    TMP DP  RH WIND       PRES   REMARKS
ST. JOSEPH     SUNNY     51  27  39 S13       30.14F
MOSBY          CLEAR     50  21  32 SW6       30.17F
WARRENSBURG    SUNNY     46  25  42 S8        30.20F
WHITEMAN AFB   SUNNY     47  24  39 W6        30.16F
CLINTON        SUNNY     46  25  42 MISG      30.23F
SEDALIA        SUNNY     46  25  43 SW6       30.21F
WARSAW         NOT AVBL
CHILLICOTHE      N/A     47  25  42 S6        30.17F
KIRKSVILLE     SUNNY     44  24  45 SW7       30.15F

$$

MOZ041-047>049-056>058-063>065-088>090-097-192100-
...EASTERN AND SOUTHERN MISSOURI...

CITY           SKY/WX    TMP DP  RH WIND       PRES   REMARKS
ST. LOUIS INTL MOSUNNY   42  19  39 W13       30.21F
SPIRIT OF STL  SUNNY     43  19  38 W8        30.21F
COLUMBIA       SUNNY     45  21  38 CALM      30.20F
JEFFERSON CITY SUNNY     45  21  38 W7        30.22F
ROLLA          SUNNY     44  19  36 N7        30.21F
OSAGE BEACH    SUNNY     46  20  35 W5        30.23F
SPRINGFIELD    SUNNY     49  26  41 MISG      30.23F
BRANSON        SUNNY     50  23  34 NW9       30.24F
JOPLIN         SUNNY     51  28  41 W7        30.24F
WEST PLAINS    SUNNY     51  18  27 NW10      30.22S

$$

IAZ060-094-KSZ022-034>040-054-083-096-NEZ052-066-093-192100-
...KANSAS...SOUTHEAST NEBRASKA AND IOWA...

CITY           SKY/WX    TMP DP  RH WIND       PRES   REMARKS
TOPEKA         SUNNY     56  27  32 SW12G21   30.15F
MANHATTAN      SUNNY     58  22  24 SW16      30.13F
EMPORIA        SUNNY     57  22  25 SW10      30.17F
CHANUTE        SUNNY     54  29  38 SW9       30.22F
WICHITA        PTSUNNY   58  22  24 S20       30.17F
OMAHA          MOSUNNY   52  28  39 S14       30.06F
LINCOLN        SUNNY     55  23  28 SW17      30.07F
FALLS CITY     SUNNY     54  27  35 SW14      30.10F
LAMONI         SUNNY     46  25  43 SW14      30.11F
DES MOINES     MOSUNNY   47  24  40 SW14      30.07F

$$





USA.gov is the U.S. government's official web portal to all federal, state and local government web resources and services.